Regional Weather Roundup
Issued by NWS

Home | Current Version | Previous Version | Text Only | Print | Product List | Glossary On
Versions: 1 2 3 4 5 6 7 8 9 10 11 12 13 14 15 16 17 18 19 20 21 22 23 24 25 26 27 28 29 30 31 32 33 34 35 36 37 38 39 40 41 42 43 44 45 46 47 48 49 50
000
ASUS43 KMPX 021210
RWRMN
WEATHER ROUNDUP FOR MINNESOTA
NATIONAL WEATHER SERVICE TWIN CITIES/CHANHASSEN MN
700 AM CDT SUN AUG 02 2015


NOTE: "FAIR" INDICATES FEW OR NO CLOUDS BELOW 12,000 FEET WITH NO
SIGNIFICANT WEATHER AND/OR OBSTRUCTIONS TO VISIBILITY. N/A MEANS
CURRENT SKY AND/OR WEATHER CONDITIONS ARE NOT AVAILABLE.

MNZ060>063-068>070-021300-
   Twin Cities Metro

CITY           SKY/WX    TMP DP  RH WIND       PRES   REMARKS
TWIN CITIES    PTCLDY    72  63  73 SW7       29.67R
6HR MIN TEMP:  71; 6HR MAX TEMP:  76;

ST PAUL        CLEAR     71  64  78 S7        29.67S
CRYSTAL        PTCLDY    72  64  76 SW7       29.65F
BLAINE         PTCLDY    72  66  83 CALM      29.67S
LAKEVILLE      CLEAR     70  63  78 SW6       29.69R
EDEN PRAIRIE   CLEAR     68  64  87 SW6       29.67S
6HR MIN TEMP:  68; 6HR MAX TEMP:  73;

SOUTH ST PAUL  CLEAR     73  62  70 SW6       29.68S
LAKE ELMO      FAIR      70  64  83 S5        29.69S
$$
MNZ001>005-007-008-013>017-022>024-027-028-021300-
   Northwest Minnesota

CITY           SKY/WX    TMP DP  RH WIND       PRES   REMARKS
BEMIDJI        RAIN      62  58  87 CALM      29.66R
HALLOCK        CLOUDY    61  59  94 N7        29.72R
ROSEAU         MOCLDY    61  55  82 NW5       29.70R
WARROAD        MOCLDY    61  55  82 NW5       29.69S
THIEF RVR FALL MOCLDY    63  57  82 N9        29.70R
CROOKSTON      PTCLDY    63  61  94 N6        29.71R
FOSSTON        CLOUDY    61  57  88 CALM      29.69R
DETROIT LAKES  MOCLDY    66  59  77 NE10      29.65R THUNDER
MOORHEAD       MOCLDY    66  63  88 N14       29.68R
PARK RAPIDS    PTCLDY    65  59  81 NE6       29.66S
MAHNOMEN       TSTM      62  60  93 NW9       29.69R
$$
MNZ006-009>011-018-025>026-021300-
   North Central Minnesota

CITY           SKY/WX    TMP DP  RH WIND       PRES   REMARKS
BAUDETTE       PTCLDY    59  58  96 CALM      29.67R
FLAG ISLAND    PTCLDY    63  59  88 NW12      29.67R
INTL FALLS     CLOUDY    59  58  96 CALM      29.65R
6HR MIN TEMP:  58; 6HR MAX TEMP:  64; 6HR PCP:  0.21;

WASKISH        MOCLDY    64  61  88 N5        29.66F
BIG FORK       RAIN      61  57  88 CALM      29.66R
LONGVILLE      PTCLDY    61  59  94 CALM      29.66S
GRAND RAPIDS   CLOUDY    63  55  77 SE6       29.67R
CRANE LAKE     PTSUNNY   55  55 100 S2        29.66R
ORR            PTSUNNY   61  55  82 CALM      29.63F
COOK           CLOUDY    61  57  88 CALM      29.65F
WALKER         FAIR      59  58  94 CALM      29.66F
$$
MNZ012-019>021-037-021300-
   Northeast Minnesota

CITY           SKY/WX    TMP DP  RH WIND       PRES   REMARKS
DULUTH         PTSUNNY   63  57  81 VRB3      29.67R
6HR MIN TEMP:  62; 6HR MAX TEMP:  69;

ELY            CLOUDY    61  57  88 CALM      29.65R
HIBBING        LGT RAIN  62  55  77 W6        29.65R
EVELETH        LGT RAIN  63  54  72 N14G22    29.65F
DULUTH HARBOR  MOSUNNY   66  63  88 SW6       29.65R
TWO HARBORS    MOSUNNY   66  57  72 W3        29.63R
SILVER BAY     PTSUNNY   68  54  60 W6        29.61R
GRAND MARAIS     N/A     65  57  75 NW10G20   29.56F
G MARAIS ARPRT   N/A     59  54  82 NW7       29.63S
$$
MNZ029>031-032-039>041-046>048-054>057-064-021300-
   West Central Minnesota

CITY           SKY/WX    TMP DP  RH WIND       PRES   REMARKS
FERGUS FALLS   CLEAR     64  64 100 CALM      29.61R
WHEATON        CLEAR     66  57  72 W8        29.65R
MORRIS         CLEAR     66  63  88 W9        29.62S
ALEXANDRIA     CLEAR     65  63  93 S3        29.63F
ELBOW LAKE     FAIR      62  61  98 S6        29.62S
WADENA         PTCLDY    64  63  94 NE5       29.62F
GLENWOOD       CLEAR     63  63 100 SW7       29.64S
APPLETON       CLEAR     66  61  82 W7        29.64R
BENSON         CLEAR     64  61  88 W3        29.63F
ORTONVILLE     CLEAR     72  61  68 NW8       29.65R
MADISON        CLEAR     72  61  68 W13       29.64F
WILLMAR        FAIR      66  63  88 SW6       29.65F
$$
MNZ033>034-036-042>043-049>051-058-059-021300-
   Central Minnesota

CITY           SKY/WX    TMP DP  RH WIND       PRES   REMARKS
ST CLOUD       CLEAR     65  64  97 S5        29.63F
6HR MIN TEMP:  64; 6HR MAX TEMP:  72;

SAUK CENTRE    FAIR      62  62  99 CALM      29.63F
PAYNESVILLE    CLEAR     62  61  97 CALM      29.63F
AITKIN         MOCLDY    66  61  82 CALM      29.65S
PINE RIVER     PTCLDY    61  61 100 CALM      29.70S
BRAINERD       PTCLDY    67  65  93 NE6       29.65F
STAPLES        PTCLDY    64  63  94 CALM      29.63F
LONG PRAIRIE   FAIR      63  61  94 CALM      29.63F
LITTLE FALLS   PTCLDY    63  61  94 CALM      29.63F
LITCHFIELD     CLEAR     66  66 100 CALM      29.65F
BUFFALO        CLEAR     68  63  85 CALM      29.66F
MAPLE LAKE     CLEAR     68  64  88 CALM      29.65F
$$
MNZ037-044-045-052-053-021300-
   East Central Minnesota

CITY           SKY/WX    TMP DP  RH WIND       PRES   REMARKS
PRINCETON      PTCLDY    68  64  88 CALM      29.64F
MORA           MOCLDY    64  63  94 CALM      29.66F
CAMBRIDGE      PTCLDY    70  61  73 CALM      29.63F
RUSH CITY      PTCLDY    66  64  91 CALM      29.67R
MOOSE LAKE     CLOUDY    64  61  88 NE3       29.66R
HINCKLEY       CLOUDY    63  63 100 CALM      29.67R
CLOQUET        MOSUNNY   61  55  82 CALM      29.67R
MCGREGOR       CLOUDY    63  61  94 CALM      29.67F
$$
MNZ071>073-080-081-089-090-097-098-021300-
   Southwest Minnesota

CITY           SKY/WX    TMP DP  RH WIND       PRES   REMARKS
MONTEVIDEO     CLEAR     66  61  82 SW8       29.65F
GRANITE FALLS  CLEAR     65  60  86 SW7       29.67F
CANBY          CLEAR     71  60  69 W14G20    29.68F
MARSHALL       CLEAR     70  57  64 W13       29.70F
REDWOOD FALLS  CLEAR     68  62  81 SW10      29.67F
OLIVIA         CLEAR     61  57  88 SW7       29.65F
PIPESTONE      CLEAR     63  59  88 W5        29.77S
WINDOM         CLEAR     68  63  83 SW13G20   29.74S
WORTHINGTON    CLEAR     66  61  82 SW14      29.77S
JACKSON        CLEAR     70  64  83 SW12      29.77S
TRACY          CLEAR     68  63  83 SW13      29.71S
SLAYTON        CLEAR     68  61  78 W6        29.76R
$$
MNZ065>067-074>077-082>085-091>093-021300-
   South Central Minnesota

CITY           SKY/WX    TMP DP  RH WIND       PRES   REMARKS
MANKATO        CLEAR     70  63  78 SW13      29.71S
NEW ULM        CLEAR     68  63  83 SW7       29.68F
ST JAMES       CLEAR     70  64  83 S7        29.73S
FAIRMONT       CLEAR     72  63  73 SW12      29.74F
GLENCOE        CLEAR     67  65  91 SW5       29.66S
FARIBAULT      CLEAR     70  64  83 SW8G16    29.72R
OWATONNA       CLEAR     72  66  83 SW12G20   29.73R
WASECA         CLEAR     70  66  88 SW12      29.74R
ALBERT LEA     CLEAR     72  68  88 SW12G20   29.75R
$$
MNZ078>079-086>088-094>096-021300-
   Southeast Minnesota

CITY           SKY/WX    TMP DP  RH WIND       PRES   REMARKS
ROCHESTER      CLEAR     70  67  90 SW14      29.72F
6HR MIN TEMP:  69; 6HR MAX TEMP:  72;

RED WING       CLEAR     73  63  68 NW7       29.70R
STANTON        CLEAR     71  64  80 SW5       29.70R
DODGE CENTER   CLEAR     70  66  88 SW15G21   29.73R
WINONA         CLEAR     73  64  73 SW9       29.68F
AUSTIN         CLEAR     72  68  88 SW10G17   29.73S
PRESTON        PTCLDY    69  66  89 SW12G17   29.75S
$$
ABBREVIATIONS USED IN REMARKS
   TC - TEMPERATURES IN CELSIUS
  WCI - WIND CHILL INDEX
   HX - HEAT INDEX
  VSB - VISIBILITY
$$


USA.gov is the U.S. government's official web portal to all federal, state and local government web resources and services.